EST,Max TemperatureF,Mean TemperatureF,Min TemperatureF,Max Dew PointF,MeanDew PointF,Min DewpointF,Max Humidity, Mean Humidity, Min Humidity, Max Sea Level PressureIn, Mean Sea Level PressureIn, Min Sea Level PressureIn, Max VisibilityMiles, Mean VisibilityMiles, Min VisibilityMiles, Max Wind SpeedMPH, Mean Wind SpeedMPH, Max Gust SpeedMPH,PrecipitationIn, CloudCover, Events, WindDirDegrees
2012-11-1,57,48,41,41,37,34,89,66,44,29.76,29.70,29.67,10,10,10,12,6,,0.00,5,,270
2012-11-2,55,48,42,36,32,28,73,54,41,29.92,29.81,29.76,10,10,10,21,11,28,0.00,5,,263
2012-11-3,51,48,44,32,30,28,60,53,48,30.07,30.00,29.93,10,10,10,23,14,29,0.00,6,,278
2012-11-4,52,43,35,34,31,29,86,66,46,30.10,30.05,30.00,10,10,10,16,8,,0.00,3,,299
2012-11-5,48,44,39,31,29,26,65,57,47,30.18,30.09,30.03,10,10,10,17,11,21,0.00,3,,345
2012-11-6,46,42,37,35,30,25,68,60,47,30.20,30.11,29.97,10,10,10,17,11,20,0.00,5,,19
2012-11-7,46,42,39,37,34,30,86,72,57,29.94,29.88,29.85,10,10,7,22,15,26,0.11,8,Rain,325
2012-11-8,54,46,37,34,27,18,87,57,24,30.04,29.92,29.88,10,10,6,22,14,28,0.04,5,Rain,287
2012-11-9,55,47,39,39,33,30,86,62,40,30.24,30.17,30.05,10,10,10,21,13,25,0.00,0,,307
2012-11-10,57,46,36,46,40,33,93,73,53,30.38,30.32,30.24,10,10,10,10,3,,0.00,2,,126
2012-11-11,62,54,45,50,45,40,83,70,58,30.48,30.43,30.38,10,10,9,9,3,,0.00,1,,128
2012-11-12,66,59,52,59,54,49,89,78,66,30.44,30.32,30.17,10,10,7,16,8,23,0.00,0,,134
2012-11-13,66,54,41,59,41,29,88,75,60,30.46,30.33,30.15,10,9,2,24,13,29,0.11,6,Rain,324
2012-11-14,46,42,39,32,29,27,70,57,50,30.53,30.47,30.41,10,10,10,20,13,26,0.00,3,,360
2012-11-15,50,47,44,37,36,33,71,66,61,30.40,30.34,30.30,10,10,10,13,8,,0.00,7,Rain,5
2012-11-16,50,46,35,36,32,29,85,60,48,30.43,30.33,30.28,10,10,10,13,8,18,0.01,5,Rain,6
2012-11-17,52,44,36,40,34,27,89,65,52,30.57,30.53,30.43,10,10,9,15,9,,0.00,1,,9
2012-11-18,54,50,45,41,40,37,79,70,62,30.56,30.52,30.46,10,10,10,17,15,23,0.00,4,,18
2012-11-19,51,48,46,42,40,39,81,74,68,30.45,30.35,30.20,10,10,10,18,13,26,0.00,7,,350
2012-11-20,54,46,37,43,42,35,89,77,66,30.19,30.15,30.09,10,10,10,10,7,,0.00,6,,1
2012-11-21,53,45,37,41,37,33,93,73,52,30.22,30.17,30.12,10,9,5,13,5,,0.00,0,,343
2012-11-22,55,46,36,38,36,32,86,72,51,30.26,30.20,30.15,10,10,10,14,6,,0.00,0,,329
2012-11-23,57,44,32,46,37,28,92,72,41,30.14,29.95,29.76,10,9,2,20,3,25,0.00,3,,178
2012-11-24,52,44,35,32,20,16,49,43,37,30.06,29.95,29.80,10,10,10,30,19,38,0.00,3,,292
2012-11-25,46,38,30,22,19,16,66,47,33,30.11,30.03,29.97,10,10,10,15,9,28,0.00,3,,226
2012-11-26,53,45,37,39,28,22,76,54,34,30.22,30.15,30.01,10,10,10,7,4,,0.00,2,,142
2012-11-27,50,44,39,46,42,33,93,84,76,30.25,30.18,30.13,10,9,4,17,8,,0.13,8,Rain,336
2012-11-28,48,40,33,34,28,24,87,64,42,30.38,30.29,30.22,10,10,10,16,10,20,0.00,4,,300
2012-11-29,50,41,32,33,26,22,85,57,33,30.48,30.40,30.37,10,10,10,14,8,,0.00,1,,254
2012-11-30,48,38,28,37,31,25,93,80,56,30.38,30.35,30.31,10,8,0,6,1,,0.00,3,Fog,69